Back to catalog

FLOCK 4H 36

AliveScienceSSO
NORAD 66739·PAYLOAD·🇺🇸 United States

Launched Nov 28, 2025 from Vandenberg Space Force Base

Loading…

Next Passes (next 24 hours)

TLE

FreshSource: CelesTrak SupGP

Epoch: Sep 14, 2026, 12:45 UTC

1 66739C 25276CB  26257.53138889  .00010697  00000+0  47786-3 0  2574
2 66739  97.4175 330.0310 0002982  42.0993 251.8978 15.21408798    10

Track FLOCK 4H 36 in real time with AllMySat

Download on the App Store